EW7507 Weather Reports


Display with metric or nautical units.
time (UTC)temp
F
wind
direction
speed
MPH
gust
MPH
rain 1hr
in
rain 24hr
in
rain mn
in
humidity
%
barometer
mb
20260503183454 76 202 4.0 13.0 0.00 0.00 0.00 20 970.8
20260503183447 76 327 6.0 11.0 0.00 0.00 0.00 19 970.8
20260503183112 75 204 5.0 13.0 0.00 0.00 0.00 22 970.7
20260503181953 75 196 7.0 10.0 0.00 0.00 0.00 20 970.8
20260503181946 74 185 0.0 10.0 0.00 0.00 0.00 20 970.8
20260503180946 75 320 4.0 7.0 0.00 0.00 0.00 20 970.9
20260503180448 74 320 4.0 7.0 0.00 0.00 0.00 20 971.0
20260503175946 74 298 4.0 5.0 0.00 0.00 0.00 20 971.0
20260503175446 74 286 2.0 5.0 0.00 0.00 0.00 20 971.0
20260503174945 72 282 2.0 4.0 0.00 0.00 0.00 24 971.0
20260503174444 74 217 2.0 7.0 0.00 0.00 0.00 19 971.0
20260503173952 74 235 4.0 7.0 0.00 0.00 0.00 22 971.1
20260503173944 74 238 1.0 7.0 0.00 0.00 0.00 19 971.0
20260503172945 74 259 4.0 7.0 0.00 0.00 0.00 21 971.4
20260503172453 73 281 2.0 9.0 0.00 0.00 0.00 22 971.7
20260503172445 73 0 3.0 6.0 0.00 0.00 0.00 20 971.7
20260503172110 73 264 5.0 9.0 0.00 0.00 0.00 23 971.7
20260503170943 71 226 3.0 7.0 0.00 0.00 0.00 23 971.8
20260503170445 71 340 4.0 7.0 0.00 0.00 0.00 21 971.8
20260503150941 60 254 2.0 5.0 0.00 0.00 0.00 51 972.4
20260503150443 58 254 3.0 5.0 0.00 0.00 0.00 54 972.5
20260503130439 38 271 1.0 3.0 0.00 0.00 0.00 80 973.3
20260503110436 41 271 0.0 3.0 0.00 0.00 0.00 76 973.2
20260503090434 45 272 1.0 4.0 0.00 0.00 0.00 73 973.1
20260503081431 46 178 5.0 9.0 0.00 0.00 0.00 73 972.8
20260503080938 46 224 3.0 6.0 0.00 0.00 0.00 74 972.8
20260503080930 46 224 2.0 6.0 0.00 0.00 0.00 73 972.9
20260503072930 46 289 2.0 4.0 0.00 0.00 0.00 74 973.0
20260503072438 47 290 2.0 3.0 0.00 0.00 0.00 72 973.0
20260503072431 46 290 2.0 3.0 0.00 0.00 0.00 73 973.0
20260503071430 47 290 2.0 5.0 0.00 0.00 0.00 71 973.0
20260503070928 48 290 3.0 5.0 0.00 0.00 0.00 69 973.0
20260503070431 48 292 1.0 3.0 0.00 0.00 0.00 68 973.1
20260503054926 49 204 1.0 4.0 0.00 0.00 0.00 66 973.3
20260503054430 50 204 3.0 4.0 0.00 0.00 0.00 65 973.5
20260503053926 50 203 2.0 4.0 0.00 0.00 0.00 64 973.5
20260503053428 50 203 1.0 3.0 0.00 0.00 0.00 63 973.5
20260503052926 50 203 1.0 4.0 0.00 0.00 0.00 62 973.5
20260503052426 51 203 2.0 5.0 0.00 0.00 0.00 61 973.5
20260503051926 51 203 4.0 5.0 0.00 0.00 0.00 61 973.6
20260503051426 51 202 3.0 5.0 0.00 0.00 0.00 61 973.5
20260503050926 51 200 4.0 5.0 0.00 0.00 0.00 59 973.5
20260503050428 52 200 3.0 5.0 0.00 0.00 0.00 58 973.5
20260503045926 53 199 2.0 4.0 0.00 0.00 0.00 58 973.5
20260503045427 53 199 2.0 5.0 0.00 0.00 0.00 58 973.4
20260503044932 53 196 2.0 5.0 0.00 0.00 0.00 57 973.5
20260503044925 53 199 3.0 5.0 0.00 0.00 0.00 57 973.5
20260503043924 53 195 4.0 6.0 0.00 0.00 0.00 57 973.6
20260503043427 54 193 4.0 6.0 0.00 0.00 0.00 56 973.7
20260503042924 55 221 4.0 6.0 0.00 0.00 0.00 55 973.6
20260503042428 55 219 4.0 6.0 0.00 0.00 0.00 54 973.6
20260503041924 56 219 4.0 4.0 0.00 0.00 0.00 53 973.7
20260503041427 56 214 2.0 6.0 0.00 0.00 0.00 52 973.7
20260503040932 57 226 3.0 4.0 0.00 0.00 0.00 51 973.6
20260503040924 56 213 4.0 6.0 0.00 0.00 0.00 52 973.6
20260503035924 57 197 2.0 5.0 0.00 0.00 0.00 50 973.7
20260503035425 58 195 3.0 5.0 0.00 0.00 0.00 49 973.6
20260503034924 58 154 2.0 5.0 0.00 0.00 0.00 49 973.5
20260503034425 59 152 2.0 5.0 0.00 0.00 0.00 48 973.5
20260503033924 59 173 1.0 4.0 0.00 0.00 0.00 48 973.5
20260503033424 59 164 2.0 3.0 0.00 0.00 0.00 49 973.6
20260503032931 59 169 1.0 2.0 0.00 0.00 0.00 45 973.5
20260503032924 59 168 0.0 2.0 0.00 0.00 0.00 48 973.5
20260503031923 60 169 1.0 3.0 0.00 0.00 0.00 44 973.5
20260503031424 61 169 0.0 3.0 0.00 0.00 0.00 44 973.4
20260503030929 61 213 0.0 2.0 0.00 0.00 0.00 40 973.3
20260503030922 60 183 1.0 2.0 0.00 0.00 0.00 44 973.4
20260503025923 61 213 1.0 2.0 0.00 0.00 0.00 39 973.2
20260503025424 62 213 0.0 2.0 0.00 0.00 0.00 39 973.2
20260503024922 62 213 1.0 4.0 0.00 0.00 0.00 40 973.2
20260503024427 62 213 1.0 4.0 0.00 0.00 0.00 39 973.2
20260503023923 63 213 3.0 4.0 0.00 0.00 0.00 39 973.2
20260503023424 63 214 3.0 4.0 0.00 0.00 0.00 38 973.2
20260503022921 64 217 1.0 2.0 0.00 0.00 0.00 38 973.2
20260503022423 64 217 1.0 2.0 0.00 0.00 0.00 36 973.1
20260503021933 65 217 0.0 2.0 0.00 0.00 0.00 34 973.3
20260503021923 65 217 1.0 2.0 0.00 0.00 0.00 36 973.1
20260503020930 65 217 1.0 2.0 0.00 0.00 0.00 35 973.2
20260503020923 65 217 0.0 2.0 0.00 0.00 0.00 34 973.2
20260503015922 66 217 0.0 2.0 0.00 0.00 0.00 34 973.3
20260503015423 66 217 1.0 2.0 0.00 0.00 0.00 33 973.3
20260503014920 66 217 1.0 2.0 0.00 0.00 0.00 32 973.3
20260503014431 66 219 1.0 2.0 0.00 0.00 0.00 36 973.4
20260503014423 66 219 1.0 2.0 0.00 0.00 0.00 37 973.4
20260503013422 66 219 1.0 3.0 0.00 0.00 0.00 35 973.4
20260503012920 66 217 2.0 3.0 0.00 0.00 0.00 33 973.4
20260503012423 66 217 1.0 3.0 0.00 0.00 0.00 34 973.5
20260503011928 66 219 0.0 3.0 0.00 0.00 0.00 33 973.6
20260503011921 66 219 1.0 3.0 0.00 0.00 0.00 33 973.5
20260503010919 66 219 1.0 4.0 0.00 0.00 0.00 34 973.6
20260503010422 66 219 2.0 4.0 0.00 0.00 0.00 34 973.6
20260503005928 66 219 0.0 4.0 0.00 0.00 0.00 32 973.7
20260503005921 66 219 1.0 3.0 0.00 0.00 0.00 33 973.6
20260503004920 66 219 2.0 4.0 0.00 0.00 0.00 33 973.7
20260503004422 66 221 1.0 4.0 0.00 0.00 0.00 33 973.8
20260503003921 66 224 2.0 4.0 0.00 0.00 0.00 34 973.9
20260503003421 66 240 1.0 5.0 0.00 0.00 0.00 34 973.8
20260503002919 66 243 2.0 9.0 0.00 0.00 0.00 34 973.8
20260503002421 66 220 3.0 9.0 0.00 0.00 0.00 34 974.0
20260503001925 66 159 4.0 13.0 0.00 0.00 0.00 37 974.0
20260503001918 65 192 5.0 13.0 0.00 0.00 0.00 35 974.0
20260503001545 66 233 8.0 15.0 0.00 0.00 0.00 36 974.1
20260503000424 65 296 7.0 15.0 0.00 0.00 0.00 40 974.1
20260502235926 62 278 5.0 13.0 0.00 0.00 0.00 48 974.4
20260502235919 64 186 3.0 7.0 0.00 0.00 0.00 47 974.2
20260502235546 62 159 3.0 13.0 0.00 0.00 0.00 47 974.4
20260502234420 62 147 3.0 6.0 0.00 0.00 0.00 48 974.5
20260502233917 62 192 4.0 10.0 0.00 0.00 0.00 49 974.6
20260502233421 62 240 5.0 12.0 0.00 0.00 0.00 50 975.1
20260502232918 62 271 4.0 20.0 0.00 0.00 0.00 50 975.1
20260502232421 62 258 9.0 21.0 0.00 0.00 0.00 50 975.3
20260502231918 62 276 15.0 21.0 0.00 0.00 0.00 48 975.6
20260502231429 63 310 14.0 22.0 0.00 0.00 0.00 49 975.5
20260502231421 62 262 7.0 21.0 0.00 0.00 0.00 49 975.5
20260502230422 65 321 17.0 29.0 0.00 0.00 0.00 45 975.3
20260502225917 66 302 12.0 29.0 0.00 0.00 0.00 41 975.3
20260502225420 67 340 7.0 28.0 0.00 0.00 0.00 38 975.3
20260502224917 68 289 4.0 7.0 0.00 0.00 0.00 35 975.0
20260502224421 68 252 2.0 4.0 0.00 0.00 0.00 35 974.9
20260502223916 68 251 0.0 4.0 0.00 0.00 0.00 34 974.9
20260502223420 68 251 1.0 5.0 0.00 0.00 0.00 34 974.9
20260502222915 69 262 2.0 6.0 0.00 0.00 0.00 33 975.0
20260502222420 70 314 4.0 6.0 0.00 0.00 0.00 33 975.0
20260502221916 69 264 2.0 6.0 0.00 0.00 0.00 35 975.1
20260502221420 69 165 2.0 5.0 0.00 0.00 0.00 34 975.1
20260502220916 68 159 2.0 5.0 0.00 0.00 0.00 34 975.2
20260502220420 68 159 1.0 6.0 0.00 0.00 0.00 34 975.2
20260502215917 69 157 3.0 6.0 0.00 0.00 0.00 34 975.3
20260502215425 71 142 3.0 6.0 0.00 0.00 0.00 33 975.5
20260502215418 69 147 3.0 5.0 0.00 0.00 0.00 35 975.3
20260502214430 70 18 2.0 5.0 0.00 0.00 0.00 35 975.6
20260502214421 70 96 3.0 6.0 0.00 0.00 0.00 33 975.5
20260502213425 69 94 4.0 6.0 0.00 0.00 0.00 34 975.7
20260502213418 69 41 2.0 5.0 0.00 0.00 0.00 38 975.7
20260502212418 69 94 2.0 7.0 0.00 0.00 0.00 34 975.8
20260502211916 69 85 1.0 7.0 0.00 0.00 0.00 34 975.9
20260502211420 70 58 0.0 5.0 0.00 0.00 0.00 33 976.0
20260502210922 69 1 3.0 10.0 0.00 0.00 0.00 39 976.1
20260502210914 69 61 1.0 9.0 0.00 0.00 0.00 33 976.1
20260502205914 68 96 2.0 11.0 0.00 0.00 0.00 36 976.1
20260502205414 68 182 2.0 11.0 0.00 0.00 0.00 34 976.3
20260502204914 69 85 6.0 10.0 0.00 0.00 0.00 37 976.3
20260502204415 68 0 1.0 10.0 0.00 0.00 0.00 37 976.4
20260502203913 69 138 4.0 10.0 0.00 0.00 0.00 35 976.5
20260502203414 69 165 0.0 5.0 0.00 0.00 0.00 35 976.5
20260502202914 70 217 0.0 5.0 0.00 0.00 0.00 34 976.5
20260502202414 69 207 0.0 4.0 0.00 0.00 0.00 35 976.6
20260502201912 68 314 1.0 9.0 0.00 0.00 0.00 36 976.7
20260502201424 67 147 1.0 2.0 0.00 0.00 0.00 35 977.0
20260502201416 67 296 5.0 9.0 0.00 0.00 0.00 36 976.9
20260502200415 69 130 0.0 2.0 0.00 0.00 0.00 35 977.0
20260502195912 69 0 0.0 2.0 0.00 0.00 0.00 37 977.1
20260502195413 68 0 0.0 3.0 0.00 0.00 0.00 36 977.2
20260502194912 67 306 1.0 5.0 0.00 0.00 0.00 36 977.3
20260502194413 68 307 1.0 5.0 0.00 0.00 0.00 35 977.4
20260502193912 68 316 1.0 9.0 0.00 0.00 0.00 34 977.5
20260502192911 70 0 5.0 10.0 0.00 0.00 0.00 34 977.6
20260502192414 70 6 5.0 7.0 0.00 0.00 0.00 34 977.5
20260502191913 69 72 3.0 10.0 0.00 0.00 0.00 35 977.7
20260502191420 68 7 2.0 5.0 0.00 0.00 0.00 36 977.8
20260502191412 69 0 1.0 10.0 0.00 0.00 0.00 37 977.7
20260502190412 68 11 1.0 6.0 0.00 0.00 0.00 37 977.9
20260502185911 68 0 4.0 6.0 0.00 0.00 0.00 36 978.0
20260502185413 67 41 2.0 7.0 0.00 0.00 0.00 37 978.0
20260502184910 67 334 2.0 7.0 0.00 0.00 0.00 36 978.1
20260502184413 67 0 3.0 7.0 0.00 0.00 0.00 36 978.1
20260502183910 67 13 6.0 9.0 0.00 0.00 0.00 37 978.1